Regional Weather Roundup
Issued by NWS State College, PA

Home | Current Version | Previous Version | Text Only | Print | Product List | Glossary On
Versions: 1 2 3 4 5 6 7 8 9 10 11 12 13 14 15 16 17 18 19 20 21 22 23 24 25 26 27 28 29 30 31 32 33 34 35 36 37 38 39 40 41 42 43 44 45 46 47 48 49 50
808
ASUS41 KCTP 230203
RWRCTP

REGIONAL WEATHER ROUNDUP
NATIONAL WEATHER SERVICE STATE COLLEGE PA
1000 PM EDT SUN APR 22 2018

Note: "fair" indicates few or no clouds below 12,000 feet with no
significant weather and/or obstructions to visibility.

* = STATION THAT DOES NOT REPORT PRECIPITATION /E.G. RAIN...SNOW...ETC/
    THUNDER OR FOG.

PAZ002>004-007>009-013>016-020>023-029>032-230300-
WESTERN PENNSYLVANIA

CITY           SKY/WX    TMP DP  RH WIND       PRES   REMARKS
ERIE           FAIR      52  23  32 NE13      30.33S
MEADVILLE      FAIR      50  24  36 NE9       30.31R
FRANKLIN*      FAIR      55  16  21 E5        30.31R
NEW CASTLE     FAIR      56  22  26 E5        30.29R
BEAVER COUNTY  NOT AVBL
BUTLER*        FAIR      55  27  34 E8        30.29R
PITTSBURGH INT FAIR      58  28  32 E7        30.26R
PITTSBURGH     FAIR      58  31  35 E7        30.27R
INDIANA*       PTCLDY    55  28  35 E7        30.35R
LATROBE        CLEAR     57  30  35 SE9       30.29R
WASHINGTON CO* FAIR      56  33  42 E9        30.29R
$$

PAZ004>006-010>012-017>019-024>028-033>037-041-042-045-046-049>053-230300-
CENTRAL PENNSYLVANIA

CITY           SKY/WX    TMP DP  RH WIND       PRES   REMARKS
BRADFORD       FAIR      48  15  26 E5        30.36R
DUBOIS         FAIR      52  21  29 SE7       30.32R
CLEARFIELD     FAIR      50  22  33 N3        30.34R
JOHNSTOWN      FAIR      51  30  44 E5        30.32R
ALTOONA        FAIR      55  30  38 SE7       30.35R
STATE COLLEGE  CLEAR     55  21  26 CALM      30.35R
WILLIAMSPORT   FAIR      51  23  33 CALM      30.36R
SELINSGROVE    FAIR      45  33  63 CALM      30.37R
FT INDIANTOWN  NOT AVBL
CAPITAL CITY   FAIR      56  30  37 E3        30.36R
HARRISBURG     FAIR      51  35  54 E3        30.36R
YORK           FAIR      43  37  79 CALM      30.37R
$$

PAZ038>040-043-044-047-048-054-055-060>062-067>071-230300-
EASTERN PENNSYLVANIA

CITY           SKY/WX    TMP DP  RH WIND       PRES   REMARKS
SCRANTON       FAIR      51  20  29 E6        30.37R
MOUNT POCONO   FAIR      46  16  30 N7        30.37R
ALLENTOWN      FAIR      49  26  41 CALM      30.36R
QUAKERTOWN*    CLEAR     46  32  57 CALM      30.36S
READING        FAIR      53  32  44 S3        30.36R
LANCASTER      FAIR      53  30  41 CALM      30.37R
COATESVILLE    FAIR      52  27  37 CALM      30.39R
POTTSTOWN      FAIR      51  28  41 CALM      30.38R
BLUE BELL      FAIR      52  32  46 CALM      30.38S
DOYLESTOWN     FAIR      50  27  40 CALM      30.36R
WILLOW GROVE   NOT AVBL
NORTH PHILA    FAIR      56  31  38 VRB7      30.39R
PHILADELPHIA   FAIR      52  33  48 S7        30.40R
$$




USA.gov is the U.S. government's official web portal to all federal, state and local government web resources and services.